Le nostre stazioni meteo in Italia

Pubblicità
Il mio iltempo24.it
Logan Botanic Garden, Gran Bretagna (99193): Temperatura & dewpoint: 10.01.2017 14:00:00 - 16.01.2017 14:00:00 (GMT)Logan Botanic Garden, Gran Bretagna (99193): Temperatura -20cm: 10.01.2017 14:00:00 - 16.01.2017 14:00:00 (GMT)Logan Botanic Garden, Gran Bretagna (99193): precipitazioni: 10.01.2017 14:00:00 - 16.01.2017 14:00:00 (GMT)
Data & Tempo tt [°C] td [°C] tt -20cm [°C] rr [mm]
16.01.2017 14:00:00 9,8 9,0 - 0,0
16.01.2017 13:00:00 9,6 9,0 - 0,0
16.01.2017 12:00:00 9,5 8,8 - 0,0
16.01.2017 11:00:00 9,3 8,8 - 0,2
16.01.2017 10:00:00 9,1 8,6 - 0,0
16.01.2017 09:00:00 8,7 8,3 7,0 0,0
16.01.2017 08:00:00 8,4 7,9 - 0,0
16.01.2017 07:00:00 9,0 8,2 - 0,0
16.01.2017 06:00:00 9,1 8,4 - 0,0
16.01.2017 05:00:00 9,0 8,2 - 0,0
16.01.2017 04:00:00 9,0 8,7 - 0,0
16.01.2017 03:00:00 9,0 8,7 - 0,0
16.01.2017 02:00:00 9,1 8,7 - 0,0
16.01.2017 01:00:00 9,3 8,9 - 0,0
16.01.2017 00:00:00 9,4 9,1 - 0,0
15.01.2017 23:00:00 9,6 9,2 - 0,0
15.01.2017 22:00:00 9,4 9,1 - 0,0
15.01.2017 21:00:00 9,5 9,1 - 0,0
15.01.2017 20:00:00 9,6 9,2 - 0,0
15.01.2017 19:00:00 9,7 9,5 - 0,0
15.01.2017 18:00:00 9,6 9,3 - 0,0
15.01.2017 17:00:00 9,5 9,2 - 0,0
15.01.2017 16:00:00 9,8 9,2 - 0,0
15.01.2017 15:00:00 9,8 9,2 - 0,0
15.01.2017 14:00:00 9,9 9,3 - 0,0
15.01.2017 13:00:00 9,6 9,2 - 0,0
15.01.2017 12:00:00 9,6 9,3 - 0,0
15.01.2017 11:00:00 9,8 9,0 - 0,0
15.01.2017 10:00:00 9,6 8,6 - 0,0
15.01.2017 09:00:00 9,4 8,4 6,2 0,0
15.01.2017 08:00:00 9,3 8,2 - 0,0
15.01.2017 07:00:00 9,3 8,0 - 0,0
15.01.2017 06:00:00 9,2 7,8 - 0,0
15.01.2017 05:00:00 8,9 7,6 - 0,0
15.01.2017 04:00:00 8,1 7,5 - 0,0
15.01.2017 03:00:00 7,5 6,9 - 0,6
15.01.2017 02:00:00 7,0 6,4 - 0,4
15.01.2017 01:00:00 6,3 5,8 - 0,2
15.01.2017 00:00:00 6,3 5,7 - 1,0
14.01.2017 23:00:00 6,6 5,4 - 0,2
14.01.2017 22:00:00 6,6 5,1 - 0,4
14.01.2017 21:00:00 7,2 5,0 - 0,0
14.01.2017 20:00:00 6,8 5,2 - 0,0
14.01.2017 19:00:00 6,4 5,2 - 0,4
14.01.2017 18:00:00 5,9 4,6 - 1,0
14.01.2017 17:00:00 6,8 6,0 - 0,4
14.01.2017 16:00:00 6,6 5,2 - 0,0
14.01.2017 15:00:00 6,8 4,4 - 0,2
14.01.2017 14:00:00 6,9 4,2 - 0,0
14.01.2017 13:00:00 6,7 4,0 - 0,0
14.01.2017 12:00:00 6,2 3,7 - 0,0
14.01.2017 11:00:00 5,9 3,2 - 0,0
14.01.2017 10:00:00 5,1 2,8 - 0,0
14.01.2017 09:00:00 4,6 3,0 5,9 0,0
14.01.2017 08:00:00 4,7 3,3 - 0,0
14.01.2017 07:00:00 4,9 3,8 - 0,6
14.01.2017 06:00:00 4,5 3,4 - 2,2
14.01.2017 05:00:00 4,5 3,3 - 1,6
14.01.2017 04:00:00 4,8 3,5 - 1,4
14.01.2017 03:00:00 5,5 3,4 - 0,0
14.01.2017 02:00:00 4,9 3,4 - 0,0
14.01.2017 01:00:00 4,1 3,0 - 0,2
14.01.2017 00:00:00 4,2 2,6 - 0,2
13.01.2017 23:00:00 3,5 2,5 - 1,0
13.01.2017 22:00:00 3,6 2,1 - 0,0
13.01.2017 21:00:00 3,0 1,8 - 1,0
13.01.2017 20:00:00 2,6 1,6 - 0,4
13.01.2017 19:00:00 1,7 0,3 - 0,4
13.01.2017 18:00:00 3,0 -0,4 - 0,0
13.01.2017 17:00:00 2,3 -1,0 - 0,0
13.01.2017 16:00:00 3,7 -0,7 - 0,0
13.01.2017 15:00:00 3,4 -0,7 - 0,2
13.01.2017 14:00:00 4,4 -2,3 - 0,0
13.01.2017 13:00:00 3,6 -0,7 - 0,0
13.01.2017 12:00:00 3,7 0,1 - 0,0
13.01.2017 11:00:00 2,9 1,3 - 0,6
13.01.2017 10:00:00 4,1 0,7 - 0,2
13.01.2017 09:00:00 4,5 -0,1 6,5 -
13.01.2017 08:00:00 4,0 0,7 - 0,0
13.01.2017 07:00:00 4,1 -0,2 - 0,0
13.01.2017 06:00:00 4,9 -1,3 - 0,0
13.01.2017 05:00:00 5,2 -1,9 - 0,0
13.01.2017 04:00:00 4,2 -4,7 - 0,2
13.01.2017 03:00:00 2,4 -1,3 - 0,2
13.01.2017 02:00:00 2,8 -1,3 - 0,0
13.01.2017 01:00:00 1,4 -1,4 - 0,0
13.01.2017 00:00:00 3,2 -2,9 - 0,0
12.01.2017 23:00:00 3,3 -1,6 - 0,0
12.01.2017 22:00:00 2,6 -0,2 - 0,0
12.01.2017 21:00:00 3,4 0,9 - 0,2
12.01.2017 20:00:00 2,2 1,4 - 0,4
12.01.2017 19:00:00 3,3 0,4 - 0,0
12.01.2017 18:00:00 3,3 0,3 - 0,0
12.01.2017 17:00:00 3,0 -0,7 - 0,0
12.01.2017 16:00:00 3,0 -1,1 - 0,0
12.01.2017 15:00:00 3,8 -0,6 - 0,0
12.01.2017 14:00:00 4,4 -0,1 - 0,0
12.01.2017 13:00:00 3,7 -0,6 - 0,0
12.01.2017 12:00:00 3,7 -0,2 - 0,0
12.01.2017 11:00:00 3,2 0,7 - 0,0
12.01.2017 10:00:00 3,1 0,3 - 0,0
12.01.2017 09:00:00 3,1 0,3 7,2 0,0
12.01.2017 08:00:00 3,2 0,7 - 0,0
12.01.2017 07:00:00 3,7 1,0 - 0,0
12.01.2017 06:00:00 3,9 0,9 - 0,0
12.01.2017 05:00:00 3,9 1,1 - 0,0
12.01.2017 04:00:00 4,2 0,8 - 0,0
12.01.2017 03:00:00 4,7 0,4 - 0,0
12.01.2017 02:00:00 4,9 0,9 - 0,0
12.01.2017 01:00:00 4,8 1,0 - 0,0
12.01.2017 00:00:00 4,7 1,5 - 0,0
11.01.2017 23:00:00 5,1 0,3 - 0,0
11.01.2017 22:00:00 5,1 1,1 - 0,0
11.01.2017 21:00:00 5,0 1,2 - 0,0
11.01.2017 20:00:00 4,8 0,6 - 0,0
11.01.2017 19:00:00 5,3 0,7 - 0,0
11.01.2017 18:00:00 5,4 1,2 - 0,0
11.01.2017 17:00:00 4,9 1,8 - 0,0
11.01.2017 16:00:00 5,2 1,5 - 0,0
11.01.2017 15:00:00 5,8 1,7 - 0,4
11.01.2017 14:00:00 6,0 1,6 - 0,0
11.01.2017 13:00:00 6,8 1,4 - 0,0
11.01.2017 12:00:00 5,9 1,8 - 0,0
11.01.2017 11:00:00 7,6 1,7 - 0,0
11.01.2017 10:00:00 7,0 1,9 - 0,0
11.01.2017 09:00:00 7,3 1,4 7,7 0,0
11.01.2017 08:00:00 7,1 2,6 - 0,0
11.01.2017 07:00:00 7,6 2,0 - 0,2
11.01.2017 06:00:00 8,1 4,2 - 0,0
11.01.2017 05:00:00 8,5 3,5 - 0,0
11.01.2017 04:00:00 9,1 4,1 - 0,0
11.01.2017 03:00:00 9,7 5,2 - 0,0
11.01.2017 02:00:00 10,3 7,1 - 0,0
11.01.2017 01:00:00 11,5 8,7 - 0,0
11.01.2017 00:00:00 10,6 9,1 - 0,0
10.01.2017 23:00:00 9,8 8,1 - 0,0
10.01.2017 22:00:00 9,4 7,3 - 0,0
10.01.2017 21:00:00 9,3 6,6 - 0,0
10.01.2017 20:00:00 9,0 6,2 - 0,0
10.01.2017 19:00:00 9,4 6,1 - 0,0
10.01.2017 18:00:00 9,3 6,1 - 0,0
10.01.2017 17:00:00 9,6 5,8 - 0,0
10.01.2017 16:00:00 10,1 5,6 - 0,0
10.01.2017 15:00:00 10,2 6,9 - 0,0
10.01.2017 14:00:00 9,7 8,4 - 0,0

tt = Temperatura
td = dewpoint
tt -20cm = Temperatura -20cm
rr = precipitazioni

Stazioni seguenti

WeatherPro
AMSI
MeteoEarth